DMSP 5D-2 F13 DEB, 42267

Orbit data source: Space-Track

DMSP 5D-2 F13 DEB, 42267 is space debris in SSO originally from a launch on Fri, 24 Mar 1995 UTC launched from the Air Force Western Test Range (AFWTR). Debris objects in space refer to the collection of defunct objects orbiting the Earth. Examples of debris include non-operational satellites, rocket bodies, and fragments generated from explosions, collisions, or faulty payload assembly.

Loading next visibility...
Identifier
42267, 1995-015GH
Orbit
SSO
Country
Flag of USUS
Related business
Manufacturer
Unknown
Mission
Spacecraft
Bus & Motor
Unknown
Mass
Unknown
Launch date (UTC)
1995-03-24 (31 years ago)
Launch vehicle
Unknown
Launch site
Air Force Western Test Range (AFWTR)
Object type
Payload
Rocket body
Debris
Shape & HBR
Unknown shape, 0.1 m
Radar Cross Section
Small (<0.1 m²)

Expand to show TLE details & history
Last TLE update: 4 days ago

TLE from 4 days ago
0 DMSP 5D-2 F13 DEB
1 42267U 95015GH  26067.91820733  .00006645  00000-0  30993-2 0  9992
2 42267  98.7355 315.8043 0077783 133.9115 226.8517 14.19132640556658
Epoch: 2026-03-08T22:02Z
TLE epoch observation values (Epoch: 2026-03-08T22:02:13.113Z)
Latitude
-0.00003°
Longitude
178.63105°
Altitude
869.773 km
Speed
7.398 km/s
True Right ascension
21h 03m 13s
True Declination
0° 00' 00"
Sunlit
Object was in daylight at epoch
Visualization orbit readout
Latitude
Unknown
Longitude
Unknown
Altitude
Unknown
Speed
Unknown
Apparent Right ascension
Unknown
Apparent Declination
Unknown
Sunlit
N/A
Visualization observer readout
Local Sidereal Time
23:00:49
Azimuth
Unknown
Elevation
Unknown
Doppler factor
Unknown
Orbital elements
Apogee altitude
881.48 km
Perigee altitude
769.417 km
Semi-major axis
7,203.585 km
Eccentricity
0.00778
Inclination
98.7355°
RAAN
315.8043°
Arg. of periapsis
133.9115°
True anomaly
226.20571°
Mean anomaly
226.8517°
Eccentric anomaly
226.52828°
Mean motion
3.54993 °/min
Orbital period
101.41 mins
BSTAR
0.0030993
Loading maneuver chart data...
Computing Atmospheric mass density...

Documentation

Showing up to 5 results
|